This demonstration page uses our WeatherBlox Daily Observations layout. Learn more.

Left ArrowRight Arrow

39.08367, -84.50855

Hourly Observations for October 25, 2021

Temp ( °F °C ) Dew Point ( °F °C ) Humidity (%) Winds ( mph kmh ) Pressure ( in mb ) Visibility ( mi km ) Precip ( " mm )
12:53 am 00:53 Mostly Clear 66 18.9 58 14.4 75 75 S 12 19 29.80 1009 10 16 N/A
1:53 am 01:53 Mostly Clear 65 18.3 56 13.3 73 73 S 15 24 29.78 1009 10 16 N/A
2:53 am 02:53 Clear 65 18.3 54 12.2 68 68 S 16 26 29.77 1008 10 16 N/A
3:53 am 03:53 Clear 63 17.2 53 11.7 70 70 SSW 10 17 29.77 1008 10 16 N/A
4:53 am 04:53 Mostly Cloudy 64 17.8 52 11.1 65 65 WSW 9 15 29.84 1011 10 16 N/A
5:53 am 05:53 Mostly Cloudy 61 16.1 53 11.7 75 75 SSW 9 15 29.81 1010 10 16 N/A
6:53 am 06:53 Cloudy with Light Rain 59 15 55 12.8 87 87 S 7 11 29.79 1009 8 13 0.00 0.00
7:53 am 07:53 Mostly Cloudy with Light Rain 59 15 55 12.8 87 87 SSW 6 9 29.73 1007 8 13 0.09 2.29
8:53 am 08:53 Sunny 56 13.3 56 13.3 100 100 SW 5 7 29.73 1007 10 16 0.00 0.00
9:53 am 09:53 Cloudy 59 15 57 13.9 93 93 S 5 7 29.73 1007 10 16 N/A
10:53 am 10:53 Partly Cloudy 62 16.7 58 14.4 86 86 S 14 22 29.71 1006 8 13 N/A
11:07 am 11:07 Mostly Cloudy 62 16.7 58 14.4 86 86 S 15 24 29.71 1006 10 16 N/A
11:53 am 11:53 Cloudy 62 16.7 58 14.4 86 86 SSW 12 19 29.70 1006 10 16 N/A
12:53 pm 12:53 Cloudy 65 18.3 59 15 81 81 SSW 12 19 29.67 1005 10 16 N/A
1:48 pm 13:48 Mostly Cloudy with Light Rain 59 15 57 14 94 94 WSW 18 30 29.67 1005 3 5 0.08 2.03
1:53 pm 13:53 Cloudy with Light Rain 59 15 58 14.4 96 96 WSW 13 20 29.67 1005 6 10 0.08 2.03
2:00 pm 14:00 Cloudy 60 15.6 58 14.4 93 93 WSW 15 24 29.67 1005 10 16 0.00 0.00
2:53 pm 14:53 Cloudy with Light Rain 59 15 57 13.9 93 93 W 18 30 29.68 1005 7 11 0.01 0.25
3:53 pm 15:53 Cloudy 59 15 53 11.7 81 81 WSW 18 30 29.69 1005 10 16 0.00 0.00
4:53 pm 16:53 Cloudy 55 12.8 51 10.6 87 87 W 12 19 29.74 1007 10 16 0.00 0.00
5:15 pm 17:15 Cloudy 55 12.8 50 10 83 83 WNW 15 24 29.75 1008 10 16 N/A
5:39 pm 17:39 Cloudy 54 12.2 50 10 87 87 W 13 20 29.76 1008 10 16 N/A
5:53 pm 17:53 Cloudy 54 12.2 50 10 87 87 WSW 10 17 29.76 1008 10 16 N/A
6:53 pm 18:53 Cloudy 54 12.2 51 10.6 90 90 WSW 9 15 29.78 1008 10 16 N/A
7:53 pm 19:53 Cloudy 53 11.7 51 10.6 93 93 W 10 17 29.80 1009 10 16 N/A
8:53 pm 20:53 Cloudy 54 12.2 52 11.1 93 93 WSW 6 9 29.82 1010 10 16 N/A
9:34 pm 21:34 Cloudy 54 12.2 51 10.6 90 90 WNW 8 13 29.85 1011 10 16 N/A
9:53 pm 21:53 Cloudy 54 12.2 50 10 87 87 NW 8 13 29.85 1011 10 16 N/A
10:53 pm 22:53 Cloudy 53 11.7 48 8.9 83 83 NNW 13 20 29.89 1012 10 16 N/A
11:36 pm 23:36 Cloudy 52 11.1 47 8.3 83 83 NNW 12 19 29.91 1013 10 16 0.00 0.00
11:53 pm 23:53 Cloudy 52 11.1 48 8.9 86 86 VRB 7 11 29.90 1013 10 16 0.00 0.00

Powered by AerisWeather